Location: Avoca
(45.7167°N, 74.7000°W)
Time: 18:27:15
(UTC+00:00)

Tiangong - Pass Details

Date: 05 December 2022
Orbit: 383 x 386 km, 41.5° (Epoch: 29 January)

Event Time Altitude Azimuth Distance (km) Brightness Sun altitude
Rises 00:07:48 0° 265° (W) 2,261 3.0 -29.3°
Reaches altitude 10° 00:09:58 10° 255° (WSW) 1,409 1.6 -29.7°
Enters shadow 00:10:18 12° 253° (WSW) 1,288 1.3 -29.7°
